Date,TemperatureHighF,TemperatureAvgF,TemperatureLowF,DewpointHighF,DewpointAvgF,DewpointLowF,HumidityHigh,HumidityAvg,HumidityLow,PressureMaxIn,PressureMinIn,WindSpeedMaxMPH,WindSpeedAvgMPH,GustSpeedMaxMPH,PrecipitationSumIn
2013-1-1,36,26,15,18,12,8,79,58,35,30.40,30.14,6,2,9,0.00
2013-1-2,37,22,6,9,6,0,79,54,25,30.48,30.33,6,1,8,0.00
2013-1-3,37,23,14,11,6,2,70,49,30,30.56,30.42,9,3,12,0.00
2013-1-4,35,21,8,6,1,-2,65,44,24,30.57,30.39,6,2,9,0.00
2013-1-5,44,27,10,5,3,-1,62,38,17,30.61,30.46,4,1,6,0.00
2013-1-6,44,26,10,7,4,0,65,41,19,30.58,30.27,7,1,9,0.00
2013-1-7,51,35,27,14,10,7,58,36,21,30.28,30.00,8,2,10,0.00
2013-1-8,51,33,17,16,11,7,70,44,17,30.33,30.01,8,3,9,0.00
2013-1-9,53,34,18,13,10,8,67,41,19,30.54,30.22,6,2,8,0.00
2013-1-10,46,32,19,14,10,8,63,42,24,30.22,29.79,7,2,10,0.00
2013-1-11,40,31,14,22,2,-14,62,32,14,29.99,29.64,17,5,28,0.00
2013-1-12,32,18,4,-4,-9,-16,58,32,15,30.25,29.98,6,1,13,0.00
2013-1-13,31,16,2,0,-6,-12,56,37,21,30.36,30.20,5,1,11,0.00
2013-1-14,27,19,9,20,8,-6,80,62,38,30.31,30.14,5,1,10,0.03
2013-1-15,26,14,1,2,-2,-7,72,50,30,30.67,30.31,5,2,13,0.00
2013-1-16,40,21,4,13,5,-4,72,52,31,30.75,30.57,4,1,10,0.00
2013-1-17,50,28,11,16,11,5,77,53,23,30.75,30.55,5,1,8,0.00
2013-1-18,53,33,17,17,14,10,76,51,23,30.56,30.33,5,1,10,0.00
2013-1-19,54,33,17,18,15,11,79,52,19,30.47,30.34,5,2,9,0.00
2013-1-20,54,33,17,16,12,3,77,46,13,30.43,30.24,6,2,10,0.00
2013-1-21,55,35,16,16,10,6,65,40,16,30.42,30.25,7,2,12,0.00
2013-1-22,60,37,18,15,11,-2,73,42,8,30.41,30.26,9,1,15,0.00
2013-1-23,59,37,17,12,8,4,68,34,13,30.46,30.31,5,2,10,0.00
2013-1-24,62,42,21,33,15,6,59,37,14,30.40,30.20,6,2,11,0.00
2013-1-25,58,46,36,38,32,27,72,58,44,30.25,30.08,4,1,9,0.00
2013-1-26,53,45,40,48,38,33,92,77,59,30.10,29.81,10,2,12,0.18
2013-1-27,60,48,39,41,37,32,87,67,35,29.93,29.80,9,3,17,0.00
2013-1-28,55,44,37,37,32,16,84,62,32,29.83,29.62,13,4,30,0.00
2013-1-29,37,32,27,20,12,1,64,46,25,30.04,29.67,14,6,27,0.00
2013-1-30,42,32,19,15,12,5,67,46,26,30.33,30.04,11,4,19,0.00
2013-1-31,53,36,19,22,18,14,82,52,21,30.42,30.27,7,2,15,0.00
2013-2-1,58,38,20,20,17,11,80,47,18,30.33,30.19,6,2,12,0.00
2013-2-2,56,39,24,21,17,14,73,45,21,30.42,30.30,4,1,8,0.00
2013-2-3,51,39,26,28,20,14,68,49,22,30.34,30.01,4,1,11,0.00
2013-2-4,58,44,33,28,23,18,73,46,22,30.09,29.93,6,2,11,0.00
2013-2-5,61,43,26,22,17,10,72,40,14,30.09,29.94,4,1,8,0.00
2013-2-6,60,42,25,25,19,14,64,41,23,29.99,29.83,6,2,13,0.00
2013-2-7,57,42,29,25,18,8,72,42,16,30.12,29.97,4,1,7,0.00
2013-2-8,59,45,32,20,18,13,51,36,21,30.10,29.71,11,4,22,0.00
2013-2-9,50,35,22,22,14,2,72,46,18,29.86,29.57,18,6,31,0.00
2013-2-10,44,33,22,21,12,6,72,46,22,30.04,29.87,8,2,15,0.00
2013-2-11,46,32,18,22,14,0,84,55,15,30.11,29.96,8,2,23,0.00
2013-2-12,42,32,23,21,10,1,72,44,18,30.26,30.02,9,4,18,0.00
2013-2-13,49,34,18,16,10,5,61,40,22,30.28,30.11,8,2,15,0.00
2013-2-14,52,39,21,18,15,12,69,40,22,30.23,30.07,10,3,19,0.00
2013-2-15,53,38,21,20,10,-1,72,37,11,30.40,30.23,11,3,20,0.00
2013-2-16,60,39,19,10,4,-5,56,27,7,30.48,30.16,7,1,17,0.00
2013-2-17,60,41,19,6,1,-2,42,22,8,30.16,29.71,8,3,14,0.00
2013-2-18,52,41,28,15,-5,-22,47,17,4,30.05,29.79,10,4,18,0.00
2013-2-19,60,41,20,34,4,-15,63,25,9,30.09,29.72,12,5,23,0.00
2013-2-20,52,42,34,34,27,13,77,59,22,29.72,29.40,14,5,26,0.00
2013-2-21,50,36,29,27,21,13,88,57,24,29.91,29.49,9,3,19,0.00
2013-2-22,41,30,23,22,17,8,70,58,25,30.10,29.91,8,1,15,0.00
2013-2-23,49,34,17,15,8,5,63,37,18,30.16,29.76,8,2,16,0.00
2013-2-24,42,35,28,24,13,0,84,43,20,29.91,29.64,12,6,23,0.00
2013-2-25,50,36,24,24,8,-1,84,35,12,30.14,29.91,9,3,17,0.00
2013-2-26,48,33,18,13,1,-12,58,29,10,30.16,29.88,12,4,26,0.00
2013-2-27,46,33,16,6,1,-7,54,27,13,30.36,30.16,5,2,11,0.00
2013-2-28,54,36,19,6,0,-7,44,23,8,30.43,30.28,8,2,19,0.00
2013-3-1,61,46,31,18,11,2,36,24,15,30.40,30.20,8,4,19,0.00
2013-3-2,67,47,27,21,17,13,59,32,14,30.39,30.13,6,2,12,0.00
2013-3-3,69,49,26,20,12,-3,55,27,6,30.13,29.79,11,3,19,0.00
2013-3-4,64,54,41,20,17,14,37,24,17,29.97,29.62,15,4,23,0.00
2013-3-5,61,46,29,21,14,5,67,33,11,30.25,29.97,9,3,16,0.00
2013-3-6,67,51,40,23,17,10,39,26,16,30.13,29.81,8,3,14,0.00
2013-3-7,70,53,31,18,14,10,47,24,11,29.98,29.76,6,2,11,0.00
2013-3-8,62,46,33,42,24,8,86,46,17,29.84,29.60,13,3,17,0.08
2013-3-9,46,38,31,34,24,15,82,57,30,29.98,29.71,10,3,19,0.00
2013-3-10,54,38,24,27,20,12,87,55,22,30.18,29.98,7,2,10,0.00
2013-3-11,64,45,25,20,14,6,65,35,11,30.22,29.97,8,2,10,0.00
2013-3-12,69,53,33,22,18,16,53,28,14,30.14,30.00,8,2,10,0.00
2013-3-13,72,52,33,24,20,12,61,32,12,30.27,30.08,7,2,8,0.00
2013-3-14,76,55,36,22,15,11,47,24,9,30.24,30.03,6,2,9,0.00
2013-3-15,80,58,39,18,12,8,33,18,7,30.08,29.77,6,2,8,0.00
2013-3-16,73,57,38,33,18,9,46,23,12,29.78,29.57,11,4,19,0.00
2013-3-17,70,54,39,33,19,-11,68,34,4,29.72,29.52,14,4,18,0.00
2013-3-18,68,52,35,8,4,-1,30,15,7,29.89,29.71,10,3,16,0.00
2013-3-19,64,49,37,13,7,0,30,18,11,30.11,29.87,7,1,9,0.00
2013-3-20,64,49,29,24,15,10,48,27,16,30.20,29.77,8,3,11,0.00
2013-3-21,72,58,46,30,16,-4,43,23,5,29.77,29.45,12,5,16,0.00
2013-3-22,67,51,29,25,8,1,34,19,9,29.69,29.48,11,4,16,0.00
2013-3-23,51,40,27,25,-1,-18,51,21,7,30.07,29.58,14,5,22,0.00
2013-3-24,54,37,18,-3,-9,-18,25,14,8,30.20,29.94,9,3,13,0.00
2013-3-25,58,40,24,8,4,-5,45,24,12,30.24,30.06,8,3,10,0.00
2013-3-26,66,48,28,10,6,2,33,19,10,30.19,29.87,9,4,15,0.00
2013-3-27,73,58,42,13,9,3,25,15,7,29.96,29.77,9,3,13,0.00
2013-3-28,74,60,41,20,11,5,24,15,9,29.96,29.82,10,3,12,0.00
2013-3-29,75,59,40,20,15,10,32,19,10,30.00,29.84,7,2,10,0.00
2013-3-30,74,58,36,23,17,11,39,21,10,30.02,29.80,7,3,12,0.00
2013-3-31,74,60,45,30,24,21,42,26,15,29.91,29.73,7,2,9,0.00
2013-4-1,75,61,40,24,15,1,48,21,7,29.87,29.63,10,2,14,0.00
2013-4-2,70,56,42,26,14,-3,43,20,6,29.82,29.60,12,3,16,0.00
2013-4-3,68,52,37,29,24,16,64,37,13,30.00,29.82,7,3,12,0.00
2013-4-4,74,56,36,26,18,10,60,28,9,30.12,29.90,5,2,9,0.00
2013-4-5,77,62,45,17,11,4,23,15,6,29.94,29.60,10,4,12,0.00
2013-4-6,76,65,45,23,18,13,36,17,10,29.76,29.56,8,3,11,0.00
2013-4-7,76,65,46,24,17,12,36,17,9,29.67,29.48,11,4,13,0.00
2013-4-8,77,64,50,27,19,11,35,19,8,29.51,29.08,19,7,27,0.00
2013-4-9,54,47,40,36,30,24,76,53,35,29.74,29.16,12,5,14,0.00
2013-4-10,49,42,35,34,23,17,80,50,29,29.94,29.74,8,3,11,0.00
2013-4-11,66,49,29,28,21,13,61,36,19,29.97,29.76,9,3,13,0.00
2013-4-12,70,57,43,32,26,18,56,33,15,29.81,29.64,7,2,10,0.00
2013-4-13,75,60,37,24,18,10,51,23,9,29.75,29.46,11,4,14,0.00
2013-4-14,78,66,53,22,20,16,27,18,10,29.50,29.33,14,7,23,0.00
2013-4-15,81,64,46,23,17,8,35,18,6,29.52,29.31,16,6,22,0.00
2013-4-16,81,66,51,22,14,3,26,15,5,29.56,29.35,15,7,22,0.00
2013-4-17,63,53,37,26,17,5,40,25,12,29.82,29.41,11,5,15,0.00
2013-4-18,49,41,27,14,3,-4,44,23,11,30.22,29.82,11,5,16,0.00
2013-4-19,65,46,23,5,2,-1,36,18,8,30.32,29.93,7,2,9,0.00
2013-4-20,70,55,38,17,8,2,28,16,8,29.94,29.71,13,3,17,0.00
2013-4-21,76,57,36,22,14,3,46,22,6,30.01,29.81,8,2,12,0.00
2013-4-22,83,64,38,19,12,4,33,15,5,29.85,29.54,12,4,13,0.00
2013-4-23,68,57,40,29,14,-16,52,22,5,29.93,29.57,12,5,15,0.00
2013-4-24,70,50,29,18,15,10,57,30,11,30.12,29.93,9,3,15,0.00
2013-4-25,74,61,48,27,21,10,35,23,9,29.99,29.62,14,5,18,0.00
2013-4-26,74,55,42,29,25,14,52,34,10,29.95,29.82,8,2,12,0.00
2013-4-30,87,76,46,22,13,5,27,10,5,29.60,29.43,12,5,15,0.00
2013-5-1,84,69,52,27,12,-7,37,12,6,29.91,29.53,11,4,16,0.00
2013-5-2,63,50,36,28,17,8,58,30,12,30.31,29.90,8,3,9,0.00
2013-5-3,67,51,33,14,11,7,37,21,10,30.32,29.89,7,3,11,0.00
2013-5-4,77,61,41,12,8,5,25,14,7,29.91,29.67,14,4,19,0.00
2013-5-5,73,63,50,30,18,6,26,17,10,29.90,29.74,11,4,16,0.00
2013-5-6,71,62,55,37,24,13,40,23,16,29.80,29.71,14,4,17,0.00
2013-5-7,76,62,44,33,28,20,51,29,13,29.85,29.64,11,3,13,0.00
2013-5-8,72,61,43,34,24,14,64,28,12,29.82,29.70,7,2,9,0.00
2013-5-9,74,61,45,29,22,17,40,24,13,29.90,29.76,9,2,9,0.00
2013-5-10,70,60,48,42,34,28,66,40,25,30.11,29.88,9,2,11,0.00
2013-5-11,73,59,47,44,35,26,79,46,18,30.16,30.08,9,4,11,0.00
2013-5-12,81,62,42,35,30,23,61,33,12,30.18,29.93,6,2,9,0.00
2013-5-13,84,67,48,31,27,23,45,25,12,30.07,29.84,6,2,9,0.00
2013-5-14,87,69,52,41,25,17,38,21,9,29.89,29.61,8,3,12,0.00
2013-5-15,89,72,61,44,34,24,46,28,10,29.73,29.51,12,3,14,0.00
2013-5-16,89,71,46,28,19,5,39,16,5,29.75,29.55,8,3,12,0.00
2013-5-17,88,71,48,29,18,8,29,14,7,29.74,29.54,9,3,16,0.00
2013-5-18,78,70,57,28,18,8,26,14,8,29.70,29.49,11,5,13,0.00
2013-5-19,76,65,55,34,27,14,43,26,10,29.69,29.58,13,4,19,0.00
2013-5-20,76,63,46,35,27,13,58,29,9,29.77,29.60,9,3,16,0.00
2013-5-21,81,64,42,33,26,17,60,29,9,29.85,29.63,8,2,8,0.00
2013-5-22,88,70,47,26,20,11,37,17,7,29.71,29.51,8,2,11,0.00
2013-5-23,92,74,49,34,17,4,27,13,5,29.71,29.50,10,3,15,0.00
2013-5-24,88,74,55,49,32,16,59,27,8,29.77,29.58,8,2,12,0.00
2013-5-25,92,74,49,35,20,7,32,15,5,29.80,29.54,9,3,12,0.00
2013-5-26,89,73,51,25,12,-3,28,11,3,29.76,29.55,8,3,12,0.00
2013-5-27,86,69,50,29,12,4,31,12,5,29.72,29.54,11,3,19,0.00
2013-5-28,86,70,47,24,13,3,33,13,5,29.60,29.32,9,3,12,0.00
2013-5-29,83,72,59,35,20,3,37,17,5,29.47,29.32,14,5,22,0.00
2013-5-30,88,73,50,26,19,12,26,14,7,29.62,29.47,13,4,17,0.00
2013-5-31,87,76,62,36,22,2,36,16,6,29.67,29.53,11,4,18,0.00
2013-6-1,87,71,46,28,11,2,24,11,4,29.82,29.67,9,3,12,0.00
2013-6-2,86,74,62,41,32,24,32,22,15,29.81,29.54,11,3,18,0.00
2013-6-3,93,77,60,48,34,9,57,28,5,29.70,29.47,11,5,13,0.00
2013-6-4,93,77,54,28,18,9,26,12,5,29.69,29.51,11,3,12,0.00
2013-6-5,90,77,59,41,30,18,35,19,7,29.66,29.50,9,3,14,0.00
2013-6-6,90,73,54,43,36,22,57,30,10,29.74,29.58,9,3,12,0.00
2013-6-7,92,74,58,50,41,25,68,36,9,29.73,29.47,13,4,14,0.00
2013-6-8,98,79,59,45,34,20,57,27,7,29.63,29.43,10,4,13,0.00
2013-6-9,95,81,67,46,38,24,44,24,8,29.67,29.53,6,2,8,0.00
2013-6-10,100,85,65,48,36,23,46,21,7,29.67,29.48,11,3,15,0.00
2013-6-11,101,85,65,36,22,10,28,11,4,29.67,29.49,9,3,13,0.00
2013-6-12,101,82,57,33,21,14,26,12,5,29.75,29.59,6,2,9,0.00
2013-6-13,99,82,62,44,34,23,33,19,8,29.71,29.53,12,3,18,0.00
2013-6-14,94,80,67,52,45,35,46,30,17,29.66,29.49,15,3,23,0.00
2013-6-15,96,78,60,50,40,25,65,32,9,29.78,29.59,13,4,17,0.00
2013-6-16,93,80,64,44,38,31,46,24,11,29.78,29.63,18,3,21,0.00
2013-6-17,94,78,60,44,37,31,45,25,12,29.81,29.58,11,2,13,0.00
2013-6-18,91,79,65,51,44,36,59,32,15,29.77,29.52,8,3,10,0.00
2013-6-19,98,81,58,47,26,3,45,19,3,29.64,29.40,11,3,15,0.00
2013-6-20,97,78,55,39,17,-6,47,14,2,29.66,29.47,9,2,11,0.00
2013-6-21,95,77,54,44,18,0,34,13,3,29.73,29.50,8,2,11,0.00
2013-6-22,94,77,53,29,15,6,24,11,4,29.69,29.50,9,3,15,0.00
2013-6-23,94,76,53,23,16,10,22,11,5,29.68,29.46,8,2,12,0.00
2013-6-24,95,79,57,26,14,2,20,10,4,29.67,29.50,10,3,15,0.00
2013-6-25,97,79,56,27,20,10,22,12,6,29.73,29.58,8,2,13,0.00
2013-6-26,101,82,57,31,26,19,28,14,6,29.78,29.61,7,2,9,0.00
2013-6-27,106,83,62,33,27,20,27,15,5,29.78,29.59,6,2,12,0.00
2013-6-28,97,84,76,50,39,-100,39,22,12,29.83,29.66,17,-3,17,0.00
2013-6-29,99,81,68,49,43,33,49,29,11,29.81,29.62,15,4,20,0.00
2013-6-30,97,80,64,50,44,33,51,30,11,29.81,29.55,15,3,15,0.00
2013-7-1,90,74,60,58,50,42,81,47,20,29.89,29.72,10,3,11,0.04
2013-7-2,87,72,60,60,48,41,64,44,21,29.94,29.68,15,3,15,0.05
2013-7-3,89,72,60,58,52,41,80,53,21,29.88,29.59,10,3,10,0.03
2013-7-4,93,78,60,56,49,39,79,42,16,29.71,29.54,12,3,13,0.00
2013-7-5,94,77,66,62,53,45,85,46,20,29.67,29.45,13,3,17,0.31
2013-7-6,93,74,64,61,55,44,81,57,19,29.73,29.54,9,2,13,0.00
2013-7-7,95,80,66,60,53,41,78,45,16,29.73,29.57,7,2,9,0.01
2013-7-8,95,80,70,61,53,45,74,40,18,29.83,29.63,10,3,13,0.00
2013-7-9,96,78,66,68,58,47,81,55,20,29.85,29.68,13,2,13,0.07
2013-7-10,96,81,68,60,53,44,68,42,18,29.82,29.63,12,3,13,0.02
2013-7-11,89,78,70,60,55,42,69,47,20,29.82,29.61,9,4,11,0.02
2013-7-12,92,76,64,62,56,50,84,55,25,29.75,29.62,6,2,10,0.01
2013-7-13,95,81,67,58,53,43,74,42,18,29.77,29.62,11,3,13,0.00
2013-7-14,98,80,66,62,53,42,80,45,16,29.75,29.49,11,3,11,0.06
2013-7-15,76,70,66,62,56,49,83,61,43,29.86,29.68,11,3,14,0.00
2013-7-16,84,72,62,51,47,43,64,42,24,29.94,29.81,11,3,19,0.00
2013-7-17,81,71,59,56,50,44,85,50,27,30.03,29.89,9,3,14,0.01
2013-7-18,86,74,61,54,52,48,74,48,27,29.98,29.76,6,3,10,0.00
2013-7-19,89,73,66,62,57,53,77,58,31,29.84,29.66,9,2,10,0.05
2013-7-20,89,74,65,60,57,49,82,57,28,29.78,29.60,10,4,12,0.11
2013-7-21,91,77,67,59,54,45,72,48,21,29.72,29.58,10,3,13,0.00
2013-7-22,95,81,64,56,50,43,69,39,17,29.72,29.56,6,2,10,0.00
2013-7-23,98,81,67,55,49,41,61,35,16,29.68,29.53,9,2,11,0.00
2013-7-24,92,75,66,62,52,43,75,48,23,29.83,29.63,10,2,15,0.08
2013-7-25,86,75,63,59,57,54,80,57,35,29.89,29.74,14,3,23,0.09
2013-7-26,89,73,59,61,58,52,88,64,33,29.95,29.79,22,4,26,0.45
2013-7-27,84,75,60,60,56,51,94,54,33,29.97,29.70,7,3,10,0.00
2013-7-28,89,75,66,63,58,47,81,58,25,29.75,29.58,8,2,9,0.09
2013-7-29,92,77,63,61,51,41,88,48,18,29.80,29.68,8,2,11,0.01
2013-7-30,94,80,62,54,47,35,73,36,13,29.92,29.77,7,2,11,0.00
2013-7-31,95,82,66,55,46,39,56,32,15,29.91,29.71,11,2,11,0.00
2013-8-1,88,76,68,64,56,50,84,51,30,29.85,29.73,10,3,13,0.02
2013-8-2,92,76,63,63,57,48,89,60,23,29.83,29.67,11,2,13,0.29
2013-8-3,90,77,64,60,56,49,86,53,25,29.84,29.70,5,2,8,0.00
2013-8-4,93,79,64,61,56,46,85,49,22,29.84,29.65,10,3,10,0.20
2013-8-5,91,74,65,66,58,50,85,61,25,29.83,29.66,12,2,12,0.16
2013-8-6,88,75,66,60,54,49,68,51,27,29.76,29.66,10,2,13,0.00
2013-8-7,83,72,61,57,54,46,84,55,28,29.78,29.70,12,3,20,0.00
2013-8-8,87,74,61,57,50,39,82,48,19,29.78,29.69,11,3,13,0.00
2013-8-9,89,76,62,51,45,35,61,36,16,29.86,29.74,11,5,14,0.00
2013-8-10,85,72,61,55,50,41,80,50,26,30.02,29.82,10,4,15,0.10
2013-8-11,84,70,61,56,53,43,83,58,24,30.01,29.83,8,2,9,0.00
2013-8-12,85,72,66,59,55,50,71,58,31,29.94,29.78,7,2,16,0.00
2013-8-13,88,75,64,58,51,41,75,46,21,29.91,29.76,7,2,11,0.02
2013-8-14,90,73,60,58,51,38,81,50,17,29.89,29.73,11,2,14,0.00
2013-8-15,89,74,61,55,50,37,76,48,17,29.89,29.74,8,2,10,0.00
2013-8-16,94,79,60,53,45,33,71,35,12,29.87,29.71,8,2,11,0.00
2013-8-17,96,81,68,50,44,36,46,29,14,29.82,29.63,10,3,14,0.00
2013-8-18,94,81,70,51,47,40,48,32,16,29.80,29.64,7,2,11,0.00
2013-8-19,94,79,66,59,49,42,63,38,17,29.79,29.61,8,3,13,0.05
2013-8-20,91,76,61,57,54,45,83,51,22,29.80,29.65,6,2,10,0.00
2013-8-21,89,77,63,56,52,46,75,44,24,29.82,29.67,6,2,11,0.00
2013-8-22,92,79,64,52,47,38,61,35,20,29.84,29.66,5,2,7,0.00
2013-8-23,87,74,58,48,44,37,54,34,22,29.82,29.66,8,3,11,0.00
2013-8-24,84,73,63,61,55,48,85,55,30,29.87,29.71,7,2,9,0.12
2013-8-25,86,74,65,61,58,53,84,60,32,29.94,29.84,9,2,12,0.00
2013-8-26,89,74,63,65,56,49,82,56,26,29.95,29.77,12,2,12,0.21
2013-8-27,88,74,62,59,53,46,78,50,26,29.87,29.71,4,1,9,0.00
2013-8-28,88,75,62,56,50,46,67,44,25,29.87,29.74,6,2,8,0.00
2013-8-29,87,76,68,57,54,48,67,48,28,29.90,29.79,8,3,11,0.00
2013-8-30,93,78,66,61,54,46,71,46,21,29.89,29.69,5,1,11,0.00
2013-8-31,92,76,64,56,52,44,70,46,23,29.77,29.62,5,1,7,0.00
2013-9-1,94,80,66,61,49,42,68,37,17,29.80,29.59,13,3,15,0.03
2013-9-2,89,77,68,61,54,48,73,47,27,29.84,29.69,8,2,9,0.00
2013-9-3,92,78,65,58,53,46,75,46,21,29.85,29.69,8,2,8,0.00
2013-9-4,92,78,64,55,46,32,63,36,18,29.90,29.75,5,2,9,0.00
2013-9-5,91,76,60,44,38,34,45,27,15,29.93,29.79,6,2,8,0.00
2013-9-6,90,75,60,43,38,33,40,27,16,29.93,29.72,5,2,8,0.00
2013-9-7,91,75,60,52,46,40,53,37,21,29.86,29.68,6,1,8,0.00
2013-9-8,90,75,62,62,47,43,59,40,21,29.78,29.56,9,2,15,0.05
2013-9-9,87,74,60,58,50,42,74,47,25,29.69,29.54,12,2,16,0.03
2013-9-10,73,66,61,62,58,54,96,78,52,29.85,29.66,8,2,13,0.59
2013-9-11,82,70,62,62,58,47,96,69,30,29.90,29.78,5,1,7,0.00
2013-9-12,70,65,60,64,60,56,94,85,72,29.88,29.78,8,2,11,0.31
2013-9-13,71,64,60,62,59,55,100,86,59,29.88,29.76,8,2,15,0.44
2013-9-14,74,65,59,60,58,54,97,79,51,29.84,29.73,5,1,8,0.91
2013-9-15,78,66,57,59,55,49,94,72,37,29.91,29.80,4,1,6,0.38
2013-9-16,79,67,55,57,54,49,93,66,36,29.99,29.84,5,1,7,0.00
2013-9-17,81,69,59,58,55,47,88,63,31,29.90,29.68,6,2,9,0.00
2013-9-18,82,71,63,61,56,49,83,61,33,29.73,29.59,6,2,10,0.00
2013-9-19,85,70,60,58,51,39,89,56,22,29.74,29.64,7,1,7,0.01
2013-9-20,82,68,56,54,49,40,78,53,23,29.85,29.72,5,1,7,0.00
2013-9-21,80,68,56,56,52,43,90,60,27,29.85,29.65,7,3,10,0.00
2013-9-22,80,67,57,55,50,35,87,58,28,29.69,29.36,14,4,16,0.08
2013-9-23,74,61,45,41,35,29,77,42,20,29.91,29.57,9,3,16,0.00
2013-9-24,77,62,46,43,39,34,74,44,22,30.01,29.80,4,1,6,0.00
2013-9-25,83,65,47,45,41,38,77,47,21,29.80,29.50,8,2,12,0.00
2013-9-26,83,67,48,44,37,29,74,38,15,29.62,29.48,11,3,19,0.00
2013-9-27,70,59,42,49,40,31,67,50,36,29.90,29.54,8,2,12,0.00
2013-9-28,71,53,37,31,25,16,68,38,13,30.14,29.90,6,1,8,0.00
2013-9-29,79,57,37,31,26,16,66,36,10,30.15,29.92,6,1,7,0.00
2013-9-30,84,62,41,35,28,20,67,33,10,29.94,29.72,7,1,12,0.00
2013-10-1,85,62,41,34,28,16,67,32,8,29.85,29.72,4,1,6,0.00
2013-10-2,81,60,40,37,30,21,68,37,12,29.88,29.71,7,1,9,0.00
2013-10-3,75,53,40,35,31,26,72,46,17,29.79,29.55,3,0,3,0.00
2013-10-4,64,56,49,32,18,4,48,25,11,30.02,29.65,10,4,14,0.00
2013-10-5,63,51,36,23,17,12,55,28,14,30.19,30.02,6,2,10,0.00
2013-10-6,70,52,34,28,22,17,60,34,15,30.27,30.11,4,1,5,0.00
2013-10-7,75,55,35,29,23,19,59,32,14,30.21,29.96,5,2,9,0.00
2013-10-8,78,59,42,33,29,24,58,34,16,29.97,29.67,5,2,8,0.00
2013-10-9,75,60,42,36,31,25,65,36,17,29.78,29.64,7,2,12,0.00
2013-10-10,71,54,42,47,35,25,77,52,25,29.86,29.51,16,4,22,0.11
2013-10-11,63,48,31,35,30,27,88,55,27,30.01,29.86,6,2,9,0.00
2013-10-12,70,53,34,38,32,29,84,50,23,30.11,29.93,6,1,7,0.00
2013-10-13,78,62,42,44,38,33,76,44,20,30.01,29.72,10,3,18,0.00
2013-10-14,69,58,46,44,28,15,68,34,15,29.89,29.76,7,2,12,0.00
2013-10-15,66,51,32,36,26,20,67,42,24,30.00,29.82,8,3,12,0.01
2013-10-16,62,51,42,35,27,11,67,42,17,30.03,29.91,6,2,10,0.00
2013-10-17,66,46,28,22,18,15,67,36,15,30.12,29.88,5,1,10,0.00
2013-10-18,64,48,30,27,16,9,61,31,14,30.11,29.91,12,3,17,0.00
2013-10-19,67,47,29,28,21,10,79,43,12,30.17,29.97,6,2,9,0.00
2013-10-20,71,51,30,23,16,9,65,30,10,30.02,29.79,8,2,10,0.00
2013-10-21,64,51,39,31,25,16,65,39,22,30.09,29.88,3,1,5,0.00
2013-10-22,70,50,32,26,23,19,66,40,15,30.25,30.07,5,1,6,0.00
2013-10-23,70,51,34,28,24,19,60,38,18,30.17,29.99,5,2,8,0.00
2013-10-24,75,56,38,49,29,23,87,40,18,30.13,29.95,8,2,10,0.09
2013-10-25,66,54,46,48,44,39,86,72,42,30.12,29.94,13,3,25,0.07
2013-10-26,68,51,37,46,39,31,95,68,27,30.23,30.07,6,1,8,0.01
2013-10-27,68,52,36,40,36,31,92,60,26,30.15,29.81,5,1,9,0.00
2013-10-28,71,55,43,41,33,22,80,49,20,29.84,29.71,3,1,6,0.00
2013-10-29,70,58,46,28,24,21,45,28,17,29.88,29.64,11,4,18,0.00
2013-10-30,57,48,39,36,31,24,74,52,30,29.89,29.65,9,2,12,0.00
2013-10-31,56,44,32,29,25,20,79,52,25,30.08,29.89,10,2,10,0.00
2013-11-1,62,48,35,29,24,20,66,42,21,30.20,30.03,9,2,13,0.00
2013-11-2,63,46,32,28,24,22,73,45,21,30.29,29.98,7,1,8,0.00
2013-11-3,68,53,38,42,30,22,77,44,21,29.99,29.64,9,3,11,0.00
2013-11-4,66,53,33,41,34,27,81,51,27,29.84,29.63,8,3,13,0.00
2013-11-5,53,44,32,44,31,17,90,62,38,30.21,29.67,10,3,11,0.16
2013-11-6,55,40,24,20,15,7,74,39,16,30.47,30.22,6,2,10,0.00
2013-11-7,60,42,28,25,22,17,77,48,19,30.50,30.26,6,1,7,0.00
2013-11-8,62,44,28,26,23,20,78,49,22,30.27,30.02,5,1,10,0.00
2013-11-9,69,48,28,27,23,20,78,44,16,30.19,30.07,4,1,6,0.00
2013-11-10,68,48,32,27,24,18,71,43,15,30.26,30.12,6,1,8,0.00
2013-11-11,68,50,34,27,24,19,68,40,16,30.30,30.14,7,2,8,0.00
2013-11-12,59,45,32,34,29,20,79,55,32,30.50,30.29,6,1,7,0.00
2013-11-13,56,44,32,37,34,29,91,70,47,30.49,30.11,5,2,10,0.00
2013-11-14,60,44,33,39,32,24,91,66,34,30.11,29.90,3,1,5,0.00
2013-11-15,61,44,29,45,32,22,88,64,34,29.92,29.65,10,2,14,0.04
2013-11-16,61,50,42,42,35,26,89,59,30,29.75,29.53,10,3,15,0.01
2013-11-17,60,46,32,32,29,26,77,52,29,30.13,29.75,6,2,9,0.00
2013-11-18,58,40,32,31,28,26,81,64,34,30.23,30.11,3,0,4,0.00
2013-11-19,62,45,29,33,30,25,86,60,29,30.16,29.85,5,1,6,0.00
2013-11-20,49,43,35,42,36,28,96,78,54,29.91,29.82,5,1,8,0.15
2013-11-21,52,46,40,45,42,38,96,88,73,30.05,29.91,7,1,7,0.22
2013-11-22,43,37,34,40,31,27,92,77,66,30.36,30.03,5,2,9,0.06
2013-11-23,38,35,30,30,27,23,86,72,61,30.45,30.32,8,3,13,0.02
2013-11-24,32,29,25,24,21,18,86,74,59,30.40,30.22,4,2,7,0.06
2013-11-25,47,34,27,30,26,23,90,73,46,30.40,30.17,6,1,8,0.02
2013-11-26,49,34,24,29,26,21,89,73,43,30.52,30.40,4,1,7,0.00
2013-11-27,48,34,22,27,25,19,88,69,41,30.47,30.25,6,1,8,0.00
2013-11-28,51,36,27,28,24,20,87,66,34,30.35,30.23,4,1,7,0.00
2013-11-29,56,38,25,29,25,21,86,65,32,30.43,30.28,6,1,6,0.00
2013-11-30,57,41,28,32,29,24,87,65,36,30.38,30.20,5,1,7,0.00
2013-12-1,49,38,30,31,28,26,90,71,49,30.33,30.23,7,2,8,0.00
2013-12-2,54,38,27,28,25,21,80,61,33,30.26,29.88,6,2,10,0.00
2013-12-3,65,45,26,26,19,9,86,45,11,29.88,29.58,14,4,20,0.00
2013-12-4,60,45,36,30,22,14,64,42,19,29.79,29.47,16,5,21,0.00
2013-12-5,37,27,14,29,21,8,90,79,56,30.10,29.76,8,3,10,0.01
2013-12-6,36,22,11,18,11,6,83,66,34,30.38,30.10,5,1,8,0.03
2013-12-7,30,25,18,25,17,9,85,73,66,30.31,29.99,6,3,12,0.00
2013-12-8,36,29,23,25,14,6,84,54,36,30.09,29.88,9,4,14,0.00
2013-12-9,31,24,12,14,6,-4,72,47,24,30.63,30.09,10,3,15,0.00
2013-12-10,37,21,8,7,2,-2,70,46,20,30.69,30.47,6,1,7,0.00
2013-12-11,43,26,11,14,9,4,75,52,26,30.68,30.52,8,2,9,0.00
2013-12-12,43,32,20,18,12,8,68,45,25,30.66,30.21,7,2,8,0.00
2013-12-13,47,37,31,29,23,18,75,58,47,30.21,29.99,9,2,14,0.00
2013-12-14,47,34,22,19,16,13,74,49,25,30.48,30.13,7,2,12,0.00
2013-12-15,49,34,21,18,16,13,74,50,26,30.50,30.37,7,2,11,0.00
2013-12-16,57,38,21,22,18,14,77,48,20,30.48,30.33,7,1,7,0.00
2013-12-17,58,39,26,22,20,18,75,50,22,30.47,30.32,6,2,9,0.00
2013-12-18,54,37,23,22,20,17,80,54,25,30.34,29.96,5,1,9,0.00
2013-12-19,57,39,26,24,21,18,74,51,23,29.96,29.69,6,1,9,0.00
2013-12-20,54,38,26,29,22,17,73,54,24,29.82,29.62,7,1,8,0.00
2013-12-21,42,37,33,33,27,23,93,70,50,29.86,29.52,7,2,11,0.08
2013-12-22,45,34,25,23,17,10,78,52,25,30.36,29.86,9,2,12,0.00
2013-12-23,49,35,23,20,17,14,69,48,27,30.55,30.36,3,1,5,0.00
2013-12-24,50,36,20,23,19,15,81,52,27,30.47,30.22,7,2,9,0.00
2013-12-25,48,34,24,21,15,8,67,48,20,30.47,30.32,6,2,8,0.00
2013-12-26,52,32,18,17,13,9,75,49,22,30.52,30.34,7,1,9,0.00
2013-12-27,54,35,22,15,12,9,68,43,17,30.47,30.29,9,2,12,0.00
2013-12-28,48,33,19,17,14,11,74,48,24,30.29,29.99,6,1,9,0.00
2013-12-29,47,36,23,21,19,15,75,51,31,30.25,30.03,5,1,10,0.00
2013-12-30,51,36,22,17,10,5,76,38,16,30.41,30.24,8,1,14,0.00
2013-12-31,51,33,17,15,13,9,75,46,22,30.42,30.22,5,1,10,0.00
2014-1-1,55,38,22,19,15,12,71,43,18,30.34,30.15,9,2,13,0.00
2014-1-2,52,34,20,22,14,9,82,47,18,30.43,30.28,5,1,9,0.00